Weather History for HESH - May, 2014

Change the Weather History Date:

Thursday, May 1, 2014

  Actual Average Record
Temperature  
Mean Temperature 83 °F -  
Max Temperature 93 °F - - ()
Min Temperature 73 °F - - ()
Cooling Degree Days 18    
Growing Degree Days 33 (Base 50)    
Moisture  
Dew Point 52 °F    
Average Humidity 33    
Maximum Humidity 57    
Minimum Humidity 19    
Precipitation  
Precipitation 0.00 in - - ()
Sea Level Pressure  
Sea Level Pressure 29.83 in    
Wind  
Wind Speed 11 mph ()    
Max Wind Speed 18 mph    
Max Gust Speed -    
T = Trace of Precipitation, MM = Missing Value Source: Averaged Metar Reports

Daily Weather History Graph

Daily Weather History Graph

Search for Another Location

Airport or City:

Trip Planner

Search our weather history database for the weather conditions in past years. The results will help you decide how hot, cold, wet, or windy it might be!

Date:

Astronomy

May. 01, 2014 Rise Set
Actual Time 5:02 AM EET 6:16 PM EET
Civil Twilight 4:38 AM EET 6:41 PM EET
Nautical Twilight 4:08 AM EET 7:10 PM EET
Astronomical Twilight 3:38 AM EET 7:41 PM EET
Moon 6:38 AM EET (5/1) 8:26 PM EET (5/1)
Length of Visible Light 14h 03m
Length of Day
13h 13m
Waxing Crescent, 5% of the Moon is Illuminated
May 1
Waxing Crescent
May 7
First Quarter
May 14
Full
May 21
Last Quarter
May 28
New

Hourly Weather History & Observations

Time (EET) Temp. Heat Index Dew Point Humidity Pressure Visibility Wind Dir Wind Speed Gust Speed Precip Events Conditions
12:00 AM 78.8 °F - 60.8 °F 54% 29.80 in - North 18.4 mph - N/A   Clear
1:00 AM 78.8 °F - 59.0 °F 51% 29.80 in - North 13.8 mph - N/A   Clear
2:00 AM 77.0 °F - 60.8 °F 57% 29.77 in - North 13.8 mph - N/A   Clear
3:00 AM 75.2 °F - 57.2 °F 53% 29.80 in - North 16.1 mph - N/A   Clear
4:00 AM 73.4 °F - 57.2 °F 57% 29.80 in - North 11.5 mph - N/A   Clear
5:00 AM 78.8 °F - 53.6 °F 42% 29.83 in - North 13.8 mph - N/A   Clear
9:00 AM 84.2 °F 83.0 °F 55.4 °F 37% 29.89 in - North 15.0 mph - N/A   Clear
10:00 AM 86.0 °F - 51.8 °F 31% 29.89 in - North 11.5 mph - N/A   Clear
11:00 AM 91.4 °F - 48.2 °F 23% 29.86 in - NNE 10.4 mph - N/A   Clear
12:00 PM 93.2 °F - 46.4 °F 20% 29.86 in - NNE 6.9 mph - N/A   Clear
1:00 PM 91.4 °F - 51.8 °F 26% 29.86 in - SE 8.1 mph - N/A   Clear
2:00 PM 93.2 °F - 48.2 °F 21% 29.83 in - East 6.9 mph - N/A   Clear
3:00 PM 93.2 °F - 44.6 °F 19% 29.83 in - South 9.2 mph - N/A   Clear
4:00 PM 93.2 °F - 44.6 °F 19% 29.80 in - South 11.5 mph - N/A   Clear
5:00 PM 93.2 °F - 46.4 °F 20% 29.80 in - South 16.1 mph - N/A   Clear
6:00 PM 91.4 °F 89.4 °F 55.4 °F 29% 29.80 in - South 11.5 mph - N/A   Clear
7:00 PM 91.4 °F 89.1 °F 53.6 °F 28% 29.80 in - SW 11.5 mph - N/A   Clear
8:00 PM 87.8 °F - 46.4 °F 24% 29.83 in - West 4.6 mph - N/A   Clear
9:00 PM 87.8 °F - 50.0 °F 27% 29.83 in - West 5.8 mph - N/A   Clear
10:00 PM 82.4 °F - 51.8 °F 35% 29.83 in - East 4.6 mph - N/A   Clear
11:00 PM 80.6 °F - 44.6 °F 28% 29.83 in - West 6.9 mph - N/A   Clear